Home > Weather > Syktyvkar > Past weeks

Flag for Russia Past Weather in Syktyvkar, Russia — Yesterday and Last 2 Weeks

Now
70 °F

Passing clouds.


Feels Like: 70 °F
Forecast: 57 / 77 °F
Wind: 3 mph from West

Location: Syktyvkar Airport

Current Time: Jul 28, 2016 at 11:34:29 PM

Latest Report: Jul 28, 2016 at 11:00 PM


Visibility: N/A

Pressure: 29.80 "Hg

Humidity: 73%

Dew Point: 61 °F

Location of SyktyvkarLocation

Past Weather in Syktyvkar — Graph

°F

Syktyvkar Temperature Yesterday

Maximum temperature yesterday: 79 °F (at 1:00 PM)
Minimum temperature yesterday: 59 °F (at 11:30 PM)
Average temperature yesterday: 69 °F

High & Low Weather Summary for the Past Weeks

 TemperatureHumidityPressure
High84 °F (Jul 18, 2:30 PM)100% (Jul 14, 12:30 AM)30.12 "Hg (Jul 14, 12:30 AM)
Low52 °F (Jul 14, 2:00 AM)32% (Jul 25, 12:30 PM)29.68 "Hg (Jul 13, 10:00 PM)
Average70 °F71%29.94 "Hg
* Reported Jul 13 10:00 PM — Jul 28 10:00 PM, Syktyvkar, Weather by CustomWeather, © 2016

Note: Actual official high and low records may vary slightly from our data, if they occured in-between our weather recording intervals... More about our weather records

Advertising

Syktyvkar Weather History for the Previous 24 Hours

Scroll right to see more
 ConditionsComfort  
Time TempWeatherWind HumidityBarometerVisibility
10:00 PM
Thu, Jul 28
70 °FPassing clouds.3 mph78%29.80 "HgN/A
9:30 PM70 °FPassing clouds.3 mph73%29.80 "Hg6 mi
9:00 PM72 °FPassing clouds.3 mph69%29.80 "HgN/A
8:30 PM72 °FPassing clouds.3 mph69%29.80 "HgN/A
8:00 PM72 °FPassing clouds.3 mph73%29.80 "HgN/A
7:30 PM72 °FPassing clouds.3 mph73%29.80 "HgN/A
7:00 PM77 °FPassing clouds.3 mph57%29.80 "HgN/A
6:30 PM77 °FPassing clouds.3 mph57%29.80 "Hg6 mi
6:00 PM79 °FScattered clouds.6 mph51%29.80 "HgN/A
5:30 PM81 °FScattered clouds.3 mph48%29.80 "HgN/A
5:00 PM79 °FScattered clouds.3 mph51%29.83 "HgN/A
4:30 PM81 °FScattered clouds.6 mph45%29.83 "HgN/A
4:00 PM81 °FPassing clouds.3 mph48%29.83 "HgN/A
3:30 PM81 °FPassing clouds.3 mph48%29.83 "HgN/A
3:00 PM81 °FPassing clouds.3 mph48%29.83 "HgN/A
2:30 PM81 °FPassing clouds.3 mph45%29.83 "HgN/A
2:00 PM79 °FScattered clouds.3 mph51%29.83 "HgN/A
1:30 PM79 °FScattered clouds.1 mph48%29.83 "HgN/A
1:00 PM79 °FScattered clouds.3 mph51%29.86 "HgN/A
12:30 PM79 °FScattered clouds.3 mph54%29.86 "HgN/A
12:00 PM77 °FScattered clouds.1 mph51%29.86 "HgN/A
11:30 AM77 °FScattered clouds.3 mph54%29.89 "HgN/A
11:00 AM75 °FScattered clouds.1 mph61%29.89 "HgN/A
10:30 AM75 °FPassing clouds.1 mph61%29.89 "HgN/A
10:00 AM75 °FPassing clouds.1 mph65%29.89 "HgN/A
9:30 AM72 °FPassing clouds.1 mph73%29.89 "HgN/A
9:00 AM72 °FPassing clouds.1 mph73%29.89 "HgN/A
8:30 AM70 °FSunny.No wind78%29.89 "Hg10 mi
8:00 AM68 °FSunny.No wind83%29.89 "Hg10 mi
7:30 AM66 °FSunny.1 mph88%29.89 "Hg10 mi
7:00 AM66 °FPassing clouds.1 mph88%29.89 "HgN/A
6:30 AM64 °FScattered clouds.1 mph94%29.89 "HgN/A
6:00 AM63 °FScattered clouds.1 mph94%29.89 "HgN/A
5:30 AM61 °FPartly sunny.1 mph94%29.89 "HgN/A
5:00 AM61 °FBroken clouds.1 mph100%29.89 "HgN/A
4:30 AM59 °FCool.No wind94%29.89 "Hg5 mi
4:00 AM57 °FScattered clouds.1 mph100%29.89 "HgN/A
3:30 AM55 °FFog.1 mph100%29.89 "Hg6 mi
3:00 AM57 °FFog.No wind100%29.89 "Hg6 mi
2:30 AM57 °FFog.1 mph94%29.89 "Hg5 mi
2:00 AM57 °FCool.No wind100%29.86 "Hg4 mi
1:30 AM57 °FFog.1 mph100%29.86 "Hg6 mi
1:00 AM59 °FClear.1 mph94%29.86 "Hg5 mi
12:30 AM59 °FClear.3 mph100%29.86 "Hg4 mi
12:00 AM59 °FClear.1 mph100%29.89 "Hg6 mi
11:30 PM
Wed, Jul 27
59 °FClear.3 mph100%29.86 "Hg6 mi
11:00 PM61 °FClear.No wind94%29.89 "Hg6 mi
Weather by CustomWeather, © 2016

See weather overviewHow to use our weather pages